Current weather by "City, St" or "zip code"  
 
Advertise Here

Current Conditions: Oklahoma City, Will Rogers World Airport, OK

Mostly Cloudy


76.0 F

Last Updated on Jul 27 2021, 12:52 am CDT
Humidity: 74%
Wind Speed: NE 4.6 mph
Barometer 30.01 in
Dewpoint: 66.9 F
Visibility: 10.00 mi
Precip: --
Heat Index: NA
Wind Chill: NA
Current conditions at:

Oklahoma City, Will Rogers World Airport, OK (KOKC)

Lat: 35.38861 Lon: 97.60028

Local Radar Image active severe weather and emergency alerts image image weather storm and storm spotter reports image weather observation monitoring service image
Local
Radar
Active
Alerts
Storm Reports Obs
Monitoring

Sign-up For Email & Text Message Weather Alert Notification Services


Advertise Here

Observation History for Oklahoma City, Will Rogers World Airport, OK


Time Wind
(mph)
Vis
(mi)
Weather Precip (in) Temperature (F) Relative
Humidity
Wind
Chill
(F)
Heat
Index
(F)
Pressure
Air Dwpt altimeter
(in)
sea level
(mb)
Rmks
12:52 am CDT NE 4.6 10.00 Mostly Cloudy -- 76.0 66.9 74% NA NA 30.01 1014.5
11:52 pm CDT N 0.0 10.00 Mostly Cloudy -- 74.0 66.0 76% NA NA 30.00 1014.3
10:52 pm CDT S 3.5 10.00 Mostly Cloudy -- 73.0 66.0 79% NA NA 30.00 1014.4
9:52 pm CDT N 0.0 10.00 Mostly Cloudy -- 77.0 64.9 66% NA NA 29.99 1013.8
8:52 pm CDT E 6.9 10.00 Mostly Cloudy -- 78.0 64.9 64% NA NA 29.99 1013.8
7:52 pm CDT NE 9.2 10.00 Mostly Cloudy -- 80.0 64.9 60% NA 82 29.97 1013.2
6:52 pm CDT E 12.7 10.00 Mostly Cloudy -- 79.0 64.0 60% NA NA 29.96 1012.9
5:52 pm CDT NE 15.0 10.00 Mostly Cloudy -- 79.0 64.9 62% NA NA 29.97 1013.6
4:52 pm CDT N 18.4 G 29.9 10.00 Mostly Cloudy -- 80.0 68.0 67% NA 83 29.97 1013.5
3:52 pm CDT NE 13.8 10.00 Thunderstorm Light Rain -- 83.0 63.0 51% NA 84 29.97 1013.2
2:52 pm CDT 3.5 10.00 Thunderstorm -- 93.0 69.1 46% NA 98 29.97 1013.2
1:52 pm CDT 3.5 10.00 Partly Cloudy -- 93.0 71.1 49% NA 100 29.99 1013.7
12:52 pm CDT SE 6.9 10.00 Partly Cloudy -- 91.0 69.1 49% NA 96 30.00 1013.9
11:52 am CDT 4.6 10.00 Mostly Cloudy -- 90.0 70.0 52% NA 95 30.00 1014.1
10:52 am CDT N 0.0 10.00 Mostly Cloudy -- 87.0 70.0 57% NA 92 30.00 1014.2
9:52 am CDT NE 10.4 10.00 Fair -- 83.0 70.0 65% NA 87 29.99 1013.9
8:52 am CDT W 3.5 10.00 Mostly Cloudy -- 77.0 68.0 74% NA NA 30.00 1014.0
7:52 am CDT SW 3.5 10.00 Mostly Cloudy -- 73.0 66.9 81% NA NA 30.02 1014.7
6:52 am CDT NW 5.8 10.00 Mostly Cloudy -- 74.0 66.9 79% NA NA 30.02 1014.6
5:52 am CDT NW 9.2 10.00 Mostly Cloudy -- 73.0 66.9 81% NA NA 30.00 1014.0
4:52 am CDT NW 5.8 10.00 Mostly Cloudy -- 72.0 66.0 82% NA NA 29.98 1013.4
3:52 am CDT N 5.8 10.00 Mostly Cloudy -- 75.0 64.9 71% NA NA 29.98 1013.3
2:52 am CDT NE 15.0 10.00 Mostly Cloudy -- 77.0 64.9 66% NA NA 29.95 1012.4
1:52 am CDT NE 6.9 10.00 Mostly Cloudy -- 76.0 64.9 69% NA NA 29.95 1012.3

Regional Weather Observation


Sundance Airport, OK (KHSD)

Fair
72.0 F

Oklahoma City, Wiley Post Airport, OK (KPWA)

Fair
74.0 F

Oklahoma City, Will Rogers World Airport, OK (KOKC)

Mostly Cloudy
76.0 F

Guthrie, Guthrie Municipal Airport, OK (KGOK)

Fog/Mist
71.0 F

Chickasha, Chickasha Municipal Airport, OK (KCHK)

Fair
74.0 F

Tinker Air Force Base, OK (KTIK)

Mostly Cloudy
74.0 F
Advertise Here

Advertise Here